Flag for U.S.A. Weather past 2 weeks in Aspen, Colorado, U.S.A.

Now
62 °F

Passing clouds.


Feels Like: 62 °F
Forecast: 56 / 76 °F
Wind: No wind

Location: Aspen-Pitkin County Airport

Current Time: Jul 24, 2014 at 2:29:12 AM

Latest Report: Jul 24, 2014 at 1:53 AM


Visibility: 10 mi

Pressure: 29.99 "Hg

Humidity: 56%

Dew point: 46 °F

Location of AspenLocation

Historic Weather in Aspen — Graph

°F

Aspen temperature yesterday

Maximum temperature yesterday: 87 °F (at 12:00 PM)
Minimum temperature yesterday: 63 °F (at 6:53 AM)
Average temperature yesterday: 73 °F

Past Weeks' High & Low Weather Summary

 TemperatureHumidityPressure
High88 °F (Jul 22, 5:53 PM)93% (Jul 11, 4:53 AM)30.45 "Hg (Jul 11, 4:53 AM)
Low46 °F (Jul 17, 5:53 AM)8% (Jul 22, 5:53 PM)29.72 "Hg (Jul 16, 6:53 PM)
Average66 °F48%29.95 "Hg
* Reported Jul 9 12:53 AM — Jul 24 12:53 AM, Aspen, Weather by CustomWeather, © 2014

Note: Actual official high and low records may vary slightly from our data, if they occured in-between our weather recording intervals... More about our weather records

Advertising

Aspen weather history for previous 24 hours

 ConditionsComfort  
Time TempWeatherWind HumidityBarometerVisibility
12:53 AM
Jul 24
71 °FPassing clouds.6 mph34%29.95 "Hg10 mi
11:53 PM
Jul 23
63 °FClear.3 mph54%29.97 "Hg10 mi
10:53 PM66 °FPassing clouds.6 mph49%29.98 "Hg10 mi
9:53 PM64 °FClear.6 mph58%30.03 "Hg10 mi
8:53 PM67 °FPassing clouds.9 mph49%30.05 "Hg10 mi
7:53 PM70 °FPassing clouds.8 mph39%30.06 "Hg10 mi
6:53 PM68 °FThundershowers. Partly sunny.16 mph49%30.10 "Hg10 mi
5:53 PM76 °FPartly sunny.10 mph33%30.01 "Hg10 mi
5:04 PM73 °FScattered clouds.12 mph41%30.43 "Hg10 mi
4:53 PM71 °FThundershowers. Partly sunny.15 mph45%30.03 "Hg10 mi
3:53 PM81 °FThunderstorms. Partly sunny.12 mph28%29.95 "Hg10 mi
2:53 PM86 °FSunny.6 mph17%29.92 "Hg10 mi
1:53 PM84 °FScattered clouds.5 mph19%29.97 "Hg10 mi
12:53 PM83 °FScattered clouds.6 mph21%29.99 "Hg10 mi
12:00 PM87 °FSunny.7 mph18%30.45 "Hg10 mi
10:53 AM84 °FSunny.5 mph20%30.03 "Hg10 mi
9:53 AM80 °FSunny.5 mph29%30.08 "Hg10 mi
8:53 AM74 °FSunny.No wind33%30.10 "Hg10 mi
7:53 AM68 °FSunny.3 mph40%30.11 "Hg10 mi
6:53 AM63 °FClear.7 mph45%30.06 "Hg10 mi
5:53 AM64 °FClear.10 mph43%30.04 "Hg10 mi
4:53 AM66 °FClear.10 mph39%30.02 "Hg10 mi
3:53 AM69 °FClear.13 mph35%30.01 "Hg10 mi
2:53 AM71 °FClear.14 mph31%30.00 "Hg10 mi
Weather by CustomWeather, © 2014

See weather overviewHow to use our weather pages